Weather History for Tampa, FL

Change the Weather History Date:

Sunday, March 17, 2013

  Actual Average Record
Temperature  
Mean Temperature 67 °F 67 °F  
Max Temperature 76 °F 76 °F 88 °F (2002)
Min Temperature 57 °F 58 °F 39 °F (1901)
Degree Days  
Heating Degree Days 0 2  
Month to date heating degree days 95 40  
Since 1 July heating degree days 352 511  
Cooling Degree Days 2 4  
Month to date cooling degree days 10 62  
Year to date cooling degree days 224 175  
Growing Degree Days 16 (Base 50)    
Moisture  
Dew Point 56 °F    
Average Humidity 73    
Maximum Humidity 93    
Minimum Humidity 53    
Precipitation  
Precipitation T in 0.10 in 3.25 in (1960)
Month to date precipitation 0.31 1.65  
Year to date precipitation 1.87 6.69  
Sea Level Pressure  
Sea Level Pressure 30.09 in    
Wind  
Wind Speed 4 mph (South)    
Max Wind Speed 13 mph    
Max Gust Speed 18 mph    
Visibility 9 miles    
Events Rain    
T = Trace of Precipitation, MM = Missing Value Source: NWS Daily Summary

Daily Weather History Graph

Daily Weather History Graph

Search for Another Location

Airport:

Trip Planner

Search our weather history database for the weather conditions in past years. The results will help you decide how hot, cold, wet, or windy it might be!

Date:

Astronomy

Mar. 17, 2013 Rise Set
Actual Time 7:37 AM EDT 7:39 PM EDT
Civil Twilight 7:13 AM EDT 8:03 PM EDT
Nautical Twilight 6:46 AM EDT 8:30 PM EDT
Astronomical Twilight 6:19 AM EDT 8:58 PM EDT
Moon 11:16 AM EDT (3/17) 12:20 AM EDT (3/17)
Length of Visible Light 12h 49m
Length of Day
12h 02m
Waxing Crescent, 31% of the Moon is Illuminated
Mar 17
Waxing Crescent
Mar 19
First Quarter
Mar 27
Full
Apr 3
Last Quarter
Apr 10
New

Hourly Weather History & Observations

Time (EDT) Temp. Dew Point Humidity Pressure Visibility Wind Dir Wind Speed Gust Speed Precip Events Conditions
12:53 AM 61.0 °F 55.9 °F 83% 30.12 in 10.0 mi Calm Calm - N/A   Clear
1:53 AM 59.0 °F 55.9 °F 90% 30.11 in 8.0 mi Calm Calm - N/A   Clear
2:53 AM 57.9 °F 55.0 °F 90% 30.10 in 7.0 mi Calm Calm - N/A   Clear
3:53 AM 57.9 °F 55.0 °F 90% 30.09 in 6.0 mi Calm Calm - N/A   Clear
4:53 AM 59.0 °F 55.9 °F 90% 30.08 in 5.0 mi Calm Calm - N/A   Clear
5:53 AM 57.9 °F 55.9 °F 93% 30.09 in 4.0 mi Calm Calm - N/A   Partly Cloudy
6:53 AM 57.0 °F 55.0 °F 93% 30.11 in 5.0 mi Calm Calm - N/A   Mostly Cloudy
7:53 AM 57.0 °F 53.1 °F 87% 30.12 in 7.0 mi East 3.5 mph - N/A   Mostly Cloudy
8:53 AM 59.0 °F 53.1 °F 81% 30.14 in 10.0 mi Calm Calm - N/A   Mostly Cloudy
9:53 AM 64.9 °F 50.0 °F 58% 30.14 in 10.0 mi ESE 6.9 mph - N/A   Mostly Cloudy
10:53 AM 66.9 °F 53.1 °F 61% 30.16 in 10.0 mi Variable 4.6 mph - N/A   Overcast
11:53 AM 72.0 °F 54.0 °F 53% 30.15 in 10.0 mi Variable 5.8 mph - N/A   Mostly Cloudy
12:53 PM 72.0 °F 54.0 °F 53% 30.13 in 10.0 mi South 8.1 mph - N/A   Overcast
1:53 PM 73.9 °F 55.9 °F 53% 30.11 in 10.0 mi SSW 9.2 mph - N/A   Mostly Cloudy
2:53 PM 73.0 °F 55.0 °F 53% 30.08 in 10.0 mi SSW 8.1 mph - N/A   Mostly Cloudy
3:53 PM 71.6 °F 57.2 °F 60% 30.05 in 10.0 mi South 10.4 mph - N/A   Overcast
4:53 PM 69.1 °F 61.0 °F 75% 30.03 in 10.0 mi SSW 10.4 mph - 0.00 in Rain Light Rain
5:53 PM 70.0 °F 59.0 °F 68% 30.03 in 10.0 mi SSW 5.8 mph - 0.00 in   Overcast
6:53 PM 69.1 °F 60.1 °F 73% 30.03 in 10.0 mi South 6.9 mph - N/A   Overcast
7:53 PM 68.0 °F 59.0 °F 73% 30.03 in 10.0 mi South 5.8 mph - N/A   Overcast
8:53 PM 66.9 °F 61.0 °F 81% 30.04 in 10.0 mi Calm Calm - N/A   Mostly Cloudy
9:53 PM 68.0 °F 57.9 °F 70% 30.05 in 10.0 mi South 4.6 mph - N/A   Overcast
10:53 PM 68.0 °F 60.1 °F 76% 30.06 in 10.0 mi Calm Calm - N/A   Overcast
11:53 PM 68.0 °F 57.9 °F 70% 30.04 in 10.0 mi ESE 4.6 mph - N/A   Scattered Clouds